Regional Weather Roundup
Issued by NWS

Home | Current Version | Previous Version | Text Only | Print | Product List | Glossary Off
Versions: 1 2 3 4 5 6 7 8 9 10 11 12 13 14 15 16 17 18 19 20 21 22 23 24 25 26 27 28 29 30 31 32 33 34 35 36 37 38 39 40 41 42 43 44 45 46 47 48 49 50

000
ASUS44 KMEG 251700
RWRTN
TENNESSEE HOURLY STATE WEATHER ROUNDUP
NATIONAL WEATHER SERVICE MEMPHIS TN
1200 PM CDT SAT APR 25 2015

TNZ002-004-019-021-049-052-054-088>092-251800-
WEST TENNESSEE

CITY           SKY/WX    TMP DP  RH WIND       PRES   REMARKS
MEMPHIS INTL   CLOUDY    71  66  84 W9        29.64F
NWS MEMPHIS      N/A     70 N/A N/A MISG        N/A
JACKSON        CLOUDY    73  64  73 SW16G26   29.62F
DYERSBURG      CLOUDY    72  54  53 SW18G31   29.61F
UNION CITY     MOSUNNY   70  32  24 SW15      29.59F
PARIS          PTSUNNY   70  61  73 SW17      29.60F
LEXINGTON      CLOUDY    73  64  73 SW12      29.62F
SAVANNAH       CLOUDY    72  32  23 SW15      29.65F
$$

TNZ008-025-027-028-033-062-065-066-251800-
NORTH MIDDLE TENNESSEE

CITY           SKY/WX    TMP DP  RH WIND       PRES   REMARKS
NASHVILLE      CLOUDY    73  63  70 S12       29.63F
CLARKSVILLE    PTSUNNY   73  61  65 SW17G26   29.59F
COOKEVILLE     PTSUNNY   70  63  78 S5        29.67F
CROSSVILLE     PTSUNNY   69  58  67 S10G17    29.70F
$$

TNZ061-075-076-078-094-096-097-251800-
SOUTH MIDDLE TENNESSEE

CITY           SKY/WX    TMP DP  RH WIND       PRES   REMARKS
FAYETTEVILLE   SUNNY     70  63  78 SW14      29.70F
TULLAHOMA      MOSUNNY   72  61  68 SW13      29.70F
WINCHESTER     SUNNY     72  63  73 SW10      29.70F
MCMINNVILLE    MOSUNNY   73  64  73 SW10      29.68F
COLUMBIA       MOSUNNY   73  32  21 SW14      29.63F
SHELBYVILLE    SUNNY     73  64  73 SW12      29.68F
$$

TNZ017-018-042-046-047-251800-
NORTHEAST TENNESSEE

CITY           SKY/WX    TMP DP  RH WIND       PRES   REMARKS
TRI CITIES     PTSUNNY   62  47  57 NE6       29.73F
ELIZABETHTON   PTSUNNY   63  50  63 VRB6      29.73F
$$

TNZ012-013-036-069-073-074-251800-
CENTRAL EAST TENNESSEE

CITY           SKY/WX    TMP DP  RH WIND       PRES   REMARKS
KNOXVILLE      PTSUNNY   63  54  72 CALM      29.72F
OAK RIDGE      CLOUDY    61  55  81 VRB3      29.75F
GATLINBURG     MOSUNNY   63  50  63 CALM      29.72F
$$

TNZ083-085-099-251800-
SOUTHEAST TENNESSEE

CITY           SKY/WX    TMP DP  RH WIND       PRES   REMARKS
CHATTANOOGA    PTSUNNY   70  61  73 S15       29.71F
$$

SKY/WX REPORTED AS FAIR MEANS FEW OR NO CLOUDS BELOW
12 THOUSAND FEET.



USA.gov is the U.S. government's official web portal to all federal, state and local government web resources and services.